Flag for Brazil Weather past 2 weeks in Ribeirão Prêto, São Paulo, Brazil

Now
70 °F

Passing clouds.


Feels Like: 70 °F
Forecast: 70 / 86 °F
Wind: 5 mph from Southeast

Location: Leite Lopes / Ribeir

Current Time: Mar 30, 2015 at 2:13:33 AM

Latest Report: Mar 30, 2015 at 1:00 AM


Visibility: N/A

Pressure: 29.98 "Hg

Humidity: 88%

Dew point: 66 °F

Location of Ribeirão PrêtoLocation

Historic Weather in Ribeirão Prêto — Graph

°F

Ribeirão Prêto temperature yesterday

Maximum temperature yesterday: 91 °F (at 1:00 PM)
Minimum temperature yesterday: 70 °F (at 5:00 AM)
Average temperature yesterday: 76 °F

Past Weeks' High & Low Weather Summary

 TemperatureHumidityPressure
High91 °F (Mar 29, 1:00 PM)100% (Mar 22, 7:00 PM)30.12 "Hg (Mar 22, 7:00 PM)
Low36 °F (Mar 22, 7:00 PM)33% (Mar 24, 2:00 PM)29.83 "Hg (Mar 21, 3:00 PM)
Average74 °F79%29.99 "Hg
* Reported Mar 15 1:00 AM — Mar 30 1:00 AM, Ribeirão Prêto, Weather by CustomWeather, © 2015

Note: Actual official high and low records may vary slightly from our data, if they occured in-between our weather recording intervals... More about our weather records

Advertising

Ribeirão Prêto weather history for previous 24 hours

 ConditionsComfort  
Time TempWeatherWind HumidityBarometerVisibility
1:00 AM
Mon, Mar 30
70 °FPassing clouds.5 mph88%29.98 "HgN/A
12:00 AM70 °FPassing clouds.7 mph88%30.01 "HgN/A
11:00 PM
Sun, Mar 29
72 °FPassing clouds.8 mph88%30.01 "HgN/A
10:00 PM73 °FPartly cloudy.10 mph83%30.04 "HgN/A
9:00 PM73 °FClear.5 mph83%30.01 "Hg10 mi
8:00 PM75 °FClear.3 mph78%29.98 "Hg10 mi
7:00 PM75 °FOvercast.8 mph78%29.98 "HgN/A
6:00 PM77 °FPassing clouds.7 mph79%29.95 "HgN/A
5:00 PM77 °FPartly sunny.5 mph74%29.92 "HgN/A
4:00 PM77 °FBroken clouds.7 mph83%29.92 "HgN/A
3:00 PM72 °FStrong thunderstorms. More clouds than sun.18 mph88%29.95 "Hg1 mi
2:00 PM90 °FBroken clouds.9 mph41%29.92 "HgN/A
1:00 PM91 °FScattered clouds.9 mph44%29.95 "HgN/A
12:00 PM90 °FScattered clouds.7 mph46%30.01 "HgN/A
11:00 AM88 °FScattered clouds.6 mph52%30.04 "HgN/A
10:00 AM84 °FSunny.3 mph58%30.04 "Hg10 mi
9:00 AM79 °FSunny.6 mph70%30.04 "Hg10 mi
8:00 AM72 °FPartly sunny.8 mph88%30.04 "HgN/A
7:00 AM70 °FPartly sunny.7 mph94%30.01 "HgN/A
6:00 AM70 °FSunny.3 mph94%30.01 "Hg10 mi
5:00 AM70 °FClear.2 mph88%29.98 "Hg10 mi
4:00 AM72 °FClear.5 mph88%29.98 "Hg10 mi
3:00 AM72 °FClear.5 mph88%29.98 "Hg10 mi
2:00 AM72 °FClear.5 mph88%29.98 "Hg10 mi
Weather by CustomWeather, © 2015

See weather overviewHow to use our weather pages